Fort Myers, FL

8:52 PM EST on January 22, 2017 (GMT -0500)
Page

Weather History for KFMY - October, 2011

Change the Weather History Date:

Wednesday, October 12, 2011

  Actual Average Record
Temperature  
Mean Temperature 81 °F 79 °F  
Max Temperature 87 °F 88 °F 94 °F (1986)
Min Temperature 75 °F 70 °F 59 °F (1903)
Degree Days  
Heating Degree Days 0 0  
Month to date heating degree days 0 0  
Since 1 July heating degree days 0 0  
Cooling Degree Days 16 14  
Month to date cooling degree days 163 179  
Year to date cooling degree days 3683 3425  
Growing Degree Days 31 (Base 50)    
Moisture  
Dew Point 72 °F    
Average Humidity 78    
Maximum Humidity 94    
Minimum Humidity 55    
Precipitation  
Precipitation 0.03 in 0.10 in 4.83 in (1987)
Month to date precipitation 3.77 1.45  
Year to date precipitation 58.21 50.83  
Sea Level Pressure  
Sea Level Pressure 29.85 in    
Wind  
Wind Speed 4 mph (WSW)    
Max Wind Speed 14 mph    
Max Gust Speed 16 mph    
Visibility 10 miles    
Events Rain    
T = Trace of Precipitation, MM = Missing Value Source: NWS Daily Summary

Daily Weather History Graph

Daily Weather History Graph

Search for Another Location

Airport or City:

Trip Planner

Search our weather history database for the weather conditions in past years. The results will help you decide how hot, cold, wet, or windy it might be!

Date:

Astronomy

Oct. 12, 2011 Rise Set
Actual Time 7:25 AM EDT 7:02 PM EDT
Civil Twilight 7:01 AM EDT 7:25 PM EDT
Nautical Twilight 6:34 AM EDT 7:52 PM EDT
Astronomical Twilight 6:08 AM EDT 8:19 PM EDT
Moon 7:14 PM EDT (10/12) 7:49 AM EDT (10/12)
Length of Visible Light 12h 23m
Length of Day
11h 37m
Full, 100% of the Moon is Illuminated
Oct 12
Full
Oct 19
Last Quarter
Oct 26
New
Nov 2
First Quarter
Nov 10
Full

Hourly Weather History & Observations

Time (EDT) Temp. Heat Index Dew Point Humidity Pressure Visibility Wind Dir Wind Speed Gust Speed Precip Events Conditions
12:53 AM 77.0 °F - 73.0 °F 88% 29.86 in 10.0 mi Calm Calm - N/A   Clear
1:53 AM 75.9 °F - 73.0 °F 91% 29.85 in 10.0 mi Calm Calm - N/A   Clear
2:53 AM 75.9 °F - 73.0 °F 91% 29.84 in 10.0 mi Calm Calm - N/A   Clear
3:53 AM 75.0 °F - 73.0 °F 94% 29.84 in 10.0 mi SE 3.5 mph - N/A   Clear
4:53 AM 75.0 °F - 73.0 °F 94% 29.83 in 10.0 mi SE 4.6 mph - N/A   Clear
5:53 AM 75.9 °F - 72.0 °F 87% 29.85 in 10.0 mi Calm Calm - 0.03 in Rain Light Rain
6:42 AM 75.2 °F - 73.4 °F 94% 29.85 in 8.0 mi Calm Calm - 0.00 in Rain Light Rain
6:50 AM 75.2 °F - 73.4 °F 94% 29.86 in 8.0 mi Calm Calm - 0.00 in Rain Light Rain
6:53 AM 75.9 °F - 73.9 °F 94% 29.86 in 9.0 mi Calm Calm - 0.00 in Rain Light Rain
7:53 AM 75.9 °F - 73.9 °F 94% 29.87 in 10.0 mi Calm Calm - 0.00 in   Mostly Cloudy
8:53 AM 78.1 °F - 73.9 °F 87% 29.88 in 10.0 mi Calm Calm - N/A   Scattered Clouds
9:30 AM 80.6 °F 85.4 °F 73.4 °F 79% 29.88 in 10.0 mi SW 4.6 mph - N/A   Mostly Cloudy
9:53 AM 80.1 °F 84.5 °F 73.9 °F 81% 29.89 in 10.0 mi WSW 5.8 mph - N/A   Mostly Cloudy
10:53 AM 81.0 °F 85.8 °F 73.0 °F 77% 29.87 in 10.0 mi West 8.1 mph - N/A   Scattered Clouds
11:53 AM 84.9 °F 90.7 °F 72.0 °F 65% 29.86 in 10.0 mi SW 9.2 mph - N/A   Mostly Cloudy
12:53 PM 87.1 °F 91.3 °F 69.1 °F 55% 29.85 in 10.0 mi SW 8.1 mph - N/A   Clear
1:53 PM 87.1 °F 92.0 °F 70.0 °F 57% 29.83 in 10.0 mi Variable 4.6 mph - N/A   Clear
2:53 PM 87.1 °F 91.3 °F 69.1 °F 55% 29.81 in 10.0 mi WSW 9.2 mph - N/A   Partly Cloudy
3:53 PM 86.0 °F 91.5 °F 71.1 °F 61% 29.81 in 10.0 mi West 10.4 mph - N/A   Scattered Clouds
5:53 PM 84.9 °F 89.4 °F 70.0 °F 61% 29.80 in 10.0 mi WNW 8.1 mph - N/A   Partly Cloudy
6:53 PM 82.0 °F 85.9 °F 70.0 °F 67% 29.82 in 10.0 mi WNW 6.9 mph - N/A   Clear
7:53 PM 81.0 °F 84.4 °F 70.0 °F 69% 29.82 in 10.0 mi NNW 6.9 mph - N/A   Clear
8:53 PM 80.1 °F 83.2 °F 70.0 °F 71% 29.83 in 10.0 mi NNE 3.5 mph - N/A   Clear
10:53 PM 79.0 °F - 71.1 °F 77% 29.86 in 10.0 mi Calm Calm - N/A   Clear
11:53 PM 78.1 °F - 71.1 °F 79% 29.86 in 10.0 mi Calm Calm - N/A   Clear